Flag for Germany Past Weather in Heidenheim an der Brenz, Baden-Württemberg, Germany — Yesterday and Last 2 Weeks

Now
64 °F

Passing clouds.


Feels Like: 64 °F
Forecast: 45 / 67 °F
Wind: 5 mph from East

Location: Laupheim Airport

Current Time: Sep 27, 2016 at 7:20:52 PM

Latest Report: Sep 27, 2016 at 6:20 PM


Visibility: N/A

Pressure: 30.33 "Hg

Humidity: 64%

Dew Point: 52 °F

Location of Heidenheim an der BrenzLocation

Past Weather in Heidenheim an der Brenz — Graph

°F

Heidenheim an der Brenz Temperature Yesterday

Maximum temperature yesterday: 70 °F (at 3:20 PM)
Minimum temperature yesterday: 54 °F (at 4:20 AM)
Average temperature yesterday: 60 °F

High & Low Weather Summary for the Past Weeks

 TemperatureHumidityPressure
High82 °F (Sep 12, 5:20 PM)100% (Sep 14, 6:20 AM)30.33 "Hg (Sep 14, 6:20 AM)
Low39 °F (Sep 22, 5:20 AM)37% (Sep 13, 3:20 PM)29.86 "Hg (Sep 15, 4:20 AM)
Average58 °F80%30.08 "Hg
* Reported Sep 12 5:20 PM — Sep 27 5:20 PM, Heidenheim an der Brenz, Weather by CustomWeather, © 2016

Note: Actual official high and low records may vary slightly from our data, if they occured in-between our weather recording intervals... More about our weather records

Advertising

Heidenheim an der Brenz Weather History for the Previous 24 Hours

Scroll right to see more
 ConditionsComfort  
Time TempWeatherWind HumidityBarometerVisibility
5:20 PM
Tue, Sep 27
66 °FPassing clouds.6 mph56%30.33 "HgN/A
5:00 PM66 °FPassing clouds.6 mph60%30.33 "HgN/A
4:20 PM66 °FPassing clouds.1 mph60%30.33 "HgN/A
3:20 PM66 °FScattered clouds.6 mph60%30.30 "HgN/A
2:20 PM64 °FScattered clouds.5 mph68%30.30 "HgN/A
1:20 PM63 °FScattered clouds.7 mph73%30.33 "HgN/A
12:20 PM61 °FScattered clouds.2 mph77%30.33 "HgN/A
11:20 AM59 °FPartly sunny.3 mph82%30.30 "HgN/A
10:20 AM57 °FFog.1 mph88%30.30 "Hg3 mi
9:56 AM55 °FFog.1 mph94%30.30 "Hg2 mi
9:20 AM55 °FFog.1 mph94%30.30 "Hg1 mi
8:20 AM54 °FFog.2 mph100%30.27 "Hg1 mi
7:48 AM54 °FFog.3 mph100%30.27 "Hg1 mi
6:20 AM54 °FFog.2 mph94%30.21 "Hg1 mi
5:20 AM52 °FFog.5 mph94%30.24 "Hg1 mi
4:20 AM52 °FFog.5 mph94%30.21 "Hg1 mi
3:20 AM52 °FFog.No wind94%30.21 "Hg1 mi
2:20 AM52 °FFog.No wind100%30.21 "Hg0 mi
1:20 AM52 °FFog.2 mph100%30.21 "Hg0 mi
12:20 AM54 °FFog.No wind100%30.21 "Hg0 mi
11:20 PM
Mon, Sep 26
54 °FFog.1 mph100%30.21 "Hg2 mi
10:20 PM55 °FFog.1 mph100%30.21 "Hg2 mi
9:20 PM57 °FCool.5 mph94%30.18 "HgN/A
8:20 PM59 °FPassing clouds.5 mph88%30.18 "HgN/A
7:20 PM63 °FPassing clouds.6 mph77%30.15 "HgN/A
Weather by CustomWeather, © 2016

See weather overviewHow to use our weather pages